| time (UTC) | temp C | wind direction | speed KPH | gust KPH | rain 1hr cm | rain 24hr cm | rain mn cm | humidity % | barometer mb |
| 20260902210648 | 25 | 0 | 24.1 | 38.6 | 0.00 | 0.00 | 0.00 | 37 | 1008.1 |
| 20260902205648 | 26 | 255 | 22.5 | 35.4 | 0.00 | 0.00 | 0.00 | 35 | 1008.1 |
| 20260902204702 | 26 | 195 | 14.5 | 33.8 | 0.00 | 0.00 | 0.00 | 32 | 1008.2 |
| 20260902203725 | 25 | 161 | 14.5 | 29.0 | 0.00 | 0.00 | 0.00 | 36 | 1008.3 |
| 20260902202717 | 25 | 215 | 6.4 | 24.1 | 0.00 | 0.00 | 0.00 | 32 | 1008.3 |
| 20260902201720 | 26 | 222 | 6.4 | 22.5 | 0.00 | 0.00 | 0.00 | 33 | 1008.2 |
| 20260902200649 | 26 | 196 | 6.4 | 20.9 | 0.00 | 0.00 | 0.00 | 31 | 1008.3 |
| 20260902195637 | 26 | 173 | 6.4 | 22.5 | 0.00 | 0.00 | 0.00 | 32 | 1008.5 |
| 20260902194636 | 26 | 236 | 12.9 | 25.7 | 0.00 | 0.00 | 0.00 | 33 | 1008.8 |
| 20260902193619 | 25 | 232 | 11.3 | 30.6 | 0.00 | 0.00 | 0.00 | 34 | 1008.9 |
| 20260902192610 | 25 | 207 | 6.4 | 30.6 | 0.00 | 0.00 | 0.00 | 34 | 1009.0 |
| 20260902191600 | 25 | 246 | 12.9 | 29.0 | 0.00 | 0.00 | 0.00 | 33 | 1009.4 |
| 20260902190609 | 25 | 224 | 6.4 | 29.0 | 0.00 | 0.00 | 0.00 | 33 | 1009.4 |
| 20260902181101 | 24 | 200 | 6.4 | 27.4 | 0.00 | 0.00 | 0.00 | 37 | 1010.6 |
| 20260902180122 | 24 | 210 | 1.6 | 16.1 | 0.00 | 0.00 | 0.00 | 36 | 1010.8 |
| 20260902175122 | 23 | 235 | 0.0 | 0.0 | 0.00 | 0.00 | 0.00 | 37 | 1010.9 |
| 20260902174138 | 24 | 260 | 1.6 | 22.5 | 0.00 | 0.00 | 0.00 | 36 | 1011.0 |
| 20260902173130 | 23 | 239 | 0.0 | 0.0 | 0.00 | 0.00 | 0.00 | 37 | 1010.9 |
| 20260902172122 | 23 | 183 | 0.0 | 0.0 | 0.00 | 0.00 | 0.00 | 36 | 1011.0 |
| 20260902171125 | 23 | 160 | 6.4 | 19.3 | 0.00 | 0.00 | 0.00 | 40 | 1010.9 |
| 20260902170135 | 22 | 191 | 1.6 | 16.1 | 0.00 | 0.00 | 0.00 | 41 | 1010.9 |
| 20260902163955 | 23 | 180 | 0.0 | 0.0 | 0.00 | 0.00 | 0.00 | 41 | 1011.1 |
| 20260902163016 | 22 | 180 | 0.0 | 0.0 | 0.00 | 0.00 | 0.00 | 42 | 1011.0 |
| 20260902162022 | 22 | 180 | 0.0 | 12.9 | 0.00 | 0.00 | 0.00 | 42 | 1011.1 |
| 20260902161032 | 22 | 200 | 0.0 | 0.0 | 0.00 | 0.00 | 0.00 | 42 | 1011.2 |
| 20260902153738 | 21 | 240 | 1.6 | 14.5 | 0.00 | 0.00 | 0.00 | 43 | 1011.3 |
| 20260902152743 | 20 | 254 | 0.0 | 12.9 | 0.00 | 0.00 | 0.00 | 45 | 1011.3 |
| 20260902151719 | 21 | 5 | 0.0 | 11.3 | 0.00 | 0.00 | 0.00 | 47 | 1011.3 |
| 20260902150706 | 21 | 5 | 0.0 | 4.8 | 0.00 | 0.00 | 0.00 | 46 | 1011.4 |
| 20260902145634 | 20 | 5 | 0.0 | 0.0 | 0.00 | 0.00 | 0.00 | 45 | 1011.4 |
| 20260902144627 | 19 | 5 | 0.0 | 0.0 | 0.00 | 0.00 | 0.00 | 48 | 1011.5 |
| 20260902143646 | 18 | 5 | 0.0 | 0.0 | 0.00 | 0.00 | 0.00 | 48 | 1011.5 |
| 20260902142704 | 17 | 5 | 0.0 | 0.0 | 0.00 | 0.00 | 0.00 | 54 | 1011.6 |
| 20260902141704 | 16 | 5 | 0.0 | 0.0 | 0.00 | 0.00 | 0.00 | 57 | 1011.5 |
| 20260902140720 | 16 | 5 | 0.0 | 0.0 | 0.00 | 0.00 | 0.00 | 58 | 1011.4 |
| 20260902135739 | 15 | 5 | 0.0 | 0.0 | 0.00 | 0.00 | 0.00 | 63 | 1011.3 |
| 20260902133610 | 13 | 5 | 0.0 | 0.0 | 0.00 | 0.00 | 0.00 | 68 | 1011.3 |
| 20260902132550 | 12 | 5 | 0.0 | 0.0 | 0.00 | 0.00 | 0.00 | 72 | 1011.1 |
| 20260902131557 | 12 | 5 | 0.0 | 0.0 | 0.00 | 0.00 | 0.00 | 71 | 1011.1 |
| 20260902130539 | 11 | 5 | 0.0 | 3.2 | 0.00 | 0.00 | 0.00 | 73 | 1011.1 |
| 20260902125546 | 11 | 5 | 0.0 | 0.0 | 0.00 | 0.00 | 0.00 | 74 | 1011.0 |
| 20260902124557 | 11 | 5 | 0.0 | 0.0 | 0.00 | 0.00 | 0.00 | 73 | 1010.9 |
| 20260902123530 | 11 | 5 | 0.0 | 0.0 | 0.00 | 0.00 | 0.00 | 73 | 1010.8 |
| 20260902122538 | 11 | 5 | 1.6 | 11.3 | 0.00 | 0.00 | 0.00 | 73 | 1010.6 |
| 20260902120336 | 12 | 5 | 0.0 | 0.0 | 0.00 | 0.00 | 0.00 | 72 | 1010.6 |
| 20260902114232 | 12 | 5 | 0.0 | 0.0 | 0.00 | 0.00 | 0.00 | 70 | 1010.4 |
| 20260902113227 | 12 | 5 | 0.0 | 0.0 | 0.00 | 0.00 | 0.00 | 70 | 1010.5 |
| 20260902112202 | 12 | 5 | 0.0 | 0.0 | 0.00 | 0.00 | 0.00 | 69 | 1010.3 |
| 20260902111202 | 12 | 5 | 0.0 | 0.0 | 0.00 | 0.00 | 0.00 | 70 | 1010.4 |
| 20260902110217 | 12 | 5 | 0.0 | 0.0 | 0.00 | 0.00 | 0.00 | 68 | 1010.4 |
| 20260902105225 | 13 | 5 | 0.0 | 0.0 | 0.00 | 0.00 | 0.00 | 66 | 1010.5 |
| 20260902104234 | 14 | 5 | 0.0 | 0.0 | 0.00 | 0.00 | 0.00 | 64 | 1010.5 |
| 20260902103241 | 14 | 5 | 0.0 | 0.0 | 0.00 | 0.00 | 0.00 | 64 | 1010.5 |
| 20260902102307 | 14 | 5 | 0.0 | 0.0 | 0.00 | 0.00 | 0.00 | 62 | 1010.5 |
| 20260902101252 | 13 | 5 | 6.4 | 14.5 | 0.00 | 0.00 | 0.00 | 64 | 1010.4 |
| 20260902095140 | 13 | 340 | 0.0 | 0.0 | 0.00 | 0.00 | 0.00 | 67 | 1010.4 |
| 20260902094122 | 13 | 340 | 0.0 | 0.0 | 0.00 | 0.00 | 0.00 | 67 | 1010.4 |
| 20260902093110 | 13 | 340 | 0.0 | 0.0 | 0.00 | 0.00 | 0.00 | 68 | 1010.5 |
| 20260902092103 | 13 | 340 | 0.0 | 0.0 | 0.00 | 0.00 | 0.00 | 68 | 1010.5 |
| 20260902091052 | 13 | 340 | 0.0 | 0.0 | 0.00 | 0.00 | 0.00 | 68 | 1010.6 |
| 20260902090018 | 13 | 339 | 0.0 | 0.0 | 0.00 | 0.00 | 0.00 | 65 | 1010.8 |
| 20260902083822 | 14 | 340 | 0.0 | 0.0 | 0.00 | 0.00 | 0.00 | 68 | 1010.8 |
| 20260902082816 | 14 | 340 | 0.0 | 0.0 | 0.00 | 0.00 | 0.00 | 68 | 1010.7 |
| 20260902081831 | 14 | 340 | 0.0 | 0.0 | 0.00 | 0.00 | 0.00 | 64 | 1011.0 |
| 20260902080856 | 14 | 355 | 0.0 | 0.0 | 0.00 | 0.00 | 0.00 | 60 | 1010.8 |
| 20260902075836 | 15 | 355 | 0.0 | 0.0 | 0.00 | 0.00 | 0.00 | 59 | 1010.7 |
| 20260902074853 | 15 | 355 | 0.0 | 0.0 | 0.00 | 0.00 | 0.00 | 59 | 1010.8 |
| 20260902073848 | 15 | 355 | 0.0 | 0.0 | 0.00 | 0.00 | 0.00 | 58 | 1011.0 |
| 20260902072849 | 15 | 355 | 0.0 | 0.0 | 0.00 | 0.00 | 0.00 | 58 | 1010.9 |
| 20260902071851 | 15 | 355 | 0.0 | 0.0 | 0.00 | 0.00 | 0.00 | 56 | 1010.8 |
| 20260902070853 | 15 | 355 | 0.0 | 0.0 | 0.00 | 0.00 | 0.00 | 56 | 1010.8 |
| 20260902065827 | 15 | 355 | 0.0 | 0.0 | 0.00 | 0.00 | 0.00 | 57 | 1010.7 |
| 20260902064827 | 15 | 355 | 0.0 | 0.0 | 0.00 | 0.00 | 0.00 | 57 | 1010.8 |
| 20260902063839 | 15 | 355 | 0.0 | 0.0 | 0.00 | 0.00 | 0.00 | 57 | 1010.8 |
| 20260902060653 | 14 | 355 | 0.0 | 0.0 | 0.00 | 0.00 | 0.00 | 58 | 1010.7 |
| 20260902055710 | 14 | 355 | 0.0 | 0.0 | 0.00 | 0.00 | 0.00 | 58 | 1010.7 |
| 20260902054640 | 14 | 355 | 0.0 | 0.0 | 0.00 | 0.00 | 0.00 | 59 | 1010.8 |
| 20260902053650 | 14 | 355 | 0.0 | 0.0 | 0.00 | 0.00 | 0.00 | 58 | 1010.7 |
| 20260902052631 | 14 | 355 | 0.0 | 0.0 | 0.00 | 0.00 | 0.00 | 57 | 1010.7 |
| 20260902051608 | 15 | 355 | 0.0 | 0.0 | 0.00 | 0.00 | 0.00 | 57 | 1010.7 |
| 20260902050535 | 15 | 355 | 0.0 | 0.0 | 0.00 | 0.00 | 0.00 | 55 | 1010.7 |
| 20260902045553 | 15 | 355 | 9.7 | 14.5 | 0.00 | 0.00 | 0.00 | 53 | 1010.6 |
| 20260902044553 | 15 | 355 | 9.7 | 14.5 | 0.00 | 0.00 | 0.00 | 53 | 1010.6 |
| 20260902042353 | 15 | 355 | 6.4 | 14.5 | 0.00 | 0.00 | 0.00 | 54 | 1010.6 |
| 20260902041413 | 15 | 355 | 0.0 | 6.4 | 0.00 | 0.00 | 0.00 | 55 | 1010.5 |
| 20260902040420 | 15 | 355 | 0.0 | 1.6 | 0.00 | 0.00 | 0.00 | 55 | 1010.5 |
| 20260902035358 | 16 | 355 | 1.6 | 8.0 | 0.00 | 0.00 | 0.00 | 52 | 1010.3 |
| 20260902034356 | 16 | 355 | 1.6 | 11.3 | 0.00 | 0.00 | 0.00 | 50 | 1010.3 |
| 20260902032227 | 17 | 355 | 11.3 | 16.1 | 0.00 | 0.00 | 0.00 | 47 | 1010.1 |
| 20260902031202 | 17 | 355 | 4.8 | 14.5 | 0.00 | 0.00 | 0.00 | 48 | 1010.0 |
| 20260902030227 | 17 | 346 | 0.0 | 0.0 | 0.00 | 0.00 | 0.00 | 48 | 1009.8 |
| 20260902025205 | 17 | 346 | 1.6 | 12.9 | 0.00 | 0.00 | 0.00 | 47 | 1009.8 |
| 20260902023004 | 18 | 345 | 1.6 | 14.5 | 0.00 | 0.00 | 0.00 | 45 | 1009.7 |
| 20260902022024 | 19 | 340 | 1.6 | 0.0 | 0.00 | 0.00 | 0.00 | 43 | 1009.7 |
| 20260902021021 | 19 | 340 | 0.0 | 1.6 | 0.00 | 0.00 | 0.00 | 42 | 1009.6 |
| 20260902020039 | 20 | 339 | 0.0 | 6.4 | 0.00 | 0.00 | 0.00 | 41 | 1009.7 |
| 20260902015006 | 20 | 339 | 0.0 | 1.6 | 0.00 | 0.00 | 0.00 | 40 | 1009.7 |
| 20260902013938 | 21 | 335 | 0.0 | 0.0 | 0.00 | 0.00 | 0.00 | 38 | 1009.6 |
| 20260902012944 | 21 | 333 | 0.0 | 14.5 | 0.00 | 0.00 | 0.00 | 37 | 1009.7 |
| 20260902011918 | 22 | 334 | 1.6 | 12.9 | 0.00 | 0.00 | 0.00 | 35 | 1009.8 |
| 20260902010928 | 22 | 334 | 4.8 | 20.9 | 0.00 | 0.00 | 0.00 | 34 | 1009.8 |
| 20260902005938 | 22 | 0 | 6.4 | 19.3 | 0.00 | 0.00 | 0.00 | 34 | 1009.8 |
| 20260902004937 | 23 | 331 | 4.8 | 17.7 | 0.00 | 0.00 | 0.00 | 32 | 1009.8 |
| 20260902003958 | 24 | 0 | 1.6 | 14.5 | 0.00 | 0.00 | 0.00 | 31 | 1009.8 |
| 20260902002934 | 25 | 272 | 1.6 | 17.7 | 0.00 | 0.00 | 0.00 | 31 | 1009.9 |
| 20260902001902 | 25 | 0 | 6.4 | 0.0 | 0.00 | 0.00 | 0.00 | 28 | 1009.8 |
| 20260902000914 | 25 | 261 | 6.4 | 19.3 | 0.00 | 0.00 | 0.00 | 29 | 1009.7 |
| 20260901235905 | 25 | 0 | 6.4 | 19.3 | 0.00 | 0.00 | 0.00 | 29 | 1009.8 |